Tracking 28091 objects as of 30-Sep-2023
HD Live streaming from Space Station
objects crossing your sky now

STARLINK-2004

Track STARLINK-2004 now!
10-day predictions
STARLINK-2004 is classified as:


NORAD ID: 47599
Int'l Code: 2021-009BD
Perigee: 553.3 km
Apogee: 555.3 km
Inclination: 53.1 °
Period: 95.6 minutes
Semi major axis: 6925 km
RCS: Unknown
Launch date: February 4, 2021
Source: United States (US)
Launch site: AIR FORCE EASTERN TEST RANGE (AFETR)
Your satellite tracking list
Your tracking list is empty




NASA's NSSDC Master Catalog

Two Line Element Set (TLE):
1 47599U 21009BD  23272.66019295  .00010979  00000-0  75429-3 0  9996
2 47599  53.0560  46.0951 0001453  87.6574 272.4581 15.06424166147231
Source of the keplerian elements: AFSPC